Highgate, VT

10:03 PM EDT on October 22, 2019 (GMT -0400)
Franklin County State

Weather History for KFSO - September, 2019

Change the Weather History Date:

Wednesday, September 18, 2019

  Actual Average (WUND) Record (WUND)
Temperature  
Mean Temperature 56 °F -  
Max Temperature 68 °F - - (-1)
Min Temperature 43 °F - - (-1)
Degree Days  
Heating Degree Days 10    
Growing Degree Days 6 (Base 50)    
Moisture  
Dew Point 43 °F    
Average Humidity 73    
Maximum Humidity 96    
Minimum Humidity 30    
Precipitation  
Precipitation 0.00 in - - ()
Sea Level Pressure  
Sea Level Pressure 30.32 in    
Wind  
Wind Speed 2 mph (ENE)    
Max Wind Speed 9 mph    
Max Gust Speed -    
Visibility 10 miles    
Events      
Averages and records for this station are not official NWS values.
T = Trace of Precipitation, MM = Missing Value Source: NWS Daily Summary

Daily Weather History Graph

Daily Weather History Graph

Search for Another Location

Airport or City:

Astronomy

Sep. 18, 2019 Rise Set
Actual Time 6:34 AM EDT 6:57 PM EDT
Civil Twilight 6:05 AM EDT 7:27 PM EDT
Nautical Twilight 5:30 AM EDT 8:01 PM EDT
Astronomical Twilight 4:54 AM EDT 8:37 PM EDT
Moon 9:19 PM EDT (9/18) 10:44 AM EDT (9/18)
Length of Visible Light 13h 22m
Length of Day
12h 23m
Waning Gibbous, 82% of the Moon is Illuminated
Sep 18
Waning Gibbous
Sep 21
Last Quarter
Sep 28
New
Oct 5
First Quarter
Oct 13
Full

Hourly Weather History & Observations

Time (EDT) Temp. Windchill Dew Point Humidity Pressure Visibility Wind Dir Wind Speed Gust Speed Precip Events Conditions
12:15 AM 48.2 °F - 46.9 °F 95% 30.25 in 10.0 mi ESE 3.5 mph - N/A   Clear
12:36 AM 48.2 °F - 46.9 °F 95% 30.25 in 10.0 mi Calm Calm - N/A   Clear
12:55 AM 47.5 °F - 46.2 °F 95% 30.25 in 10.0 mi Calm Calm - N/A   Clear
1:16 AM 47.7 °F - 46.4 °F 95% 30.26 in 10.0 mi ESE 3.5 mph - N/A   Clear
1:35 AM 47.8 °F - 46.6 °F 95% 30.27 in 10.0 mi Calm Calm - N/A   Clear
1:55 AM 48.0 °F - 46.8 °F 95% 30.27 in 10.0 mi ESE 3.5 mph - N/A   Clear
2:15 AM 47.8 °F - 46.6 °F 95% 30.27 in 10.0 mi Calm Calm - N/A   Clear
2:35 AM 47.5 °F - 46.4 °F 96% 30.27 in 10.0 mi Calm Calm - N/A   Clear
2:56 AM 46.4 °F - 45.1 °F 95% 30.27 in 10.0 mi Calm Calm - N/A   Clear
3:16 AM 46.0 °F - 44.8 °F 95% 30.27 in 10.0 mi Calm Calm - N/A   Clear
3:36 AM 46.6 °F - 45.3 °F 95% 30.27 in 10.0 mi Calm Calm - N/A   Clear
3:55 AM 46.4 °F 45.2 °F 45.0 °F 95% 30.28 in 10.0 mi East 3.5 mph - N/A   Clear
4:15 AM 44.6 °F - 43.2 °F 95% 30.28 in 10.0 mi Calm Calm - N/A   Clear
4:35 AM 45.5 °F - 44.2 °F 95% 30.28 in 10.0 mi Calm Calm - N/A   Clear
4:56 AM 44.6 °F - 43.3 °F 95% 30.28 in 10.0 mi Calm Calm - N/A   Clear
5:15 AM 43.9 °F - 42.8 °F 96% 30.28 in 10.0 mi Calm Calm - N/A   Clear
5:36 AM 43.7 °F - 42.4 °F 95% 30.29 in 10.0 mi Calm Calm - N/A   Clear
5:55 AM 43.9 °F - 42.8 °F 96% 30.30 in 10.0 mi Calm Calm - N/A   Clear
6:16 AM 43.5 °F - 42.3 °F 95% 30.30 in 10.0 mi Calm Calm - N/A   Clear
6:35 AM 43.5 °F - 42.3 °F 95% 30.31 in 10.0 mi Calm Calm - N/A   Clear
6:55 AM 43.0 °F - 41.9 °F 96% 30.31 in 10.0 mi Calm Calm - N/A   Clear
7:15 AM 43.7 °F - 42.6 °F 96% 30.32 in 10.0 mi Calm Calm - N/A   Clear
7:35 AM 44.1 °F - 43.0 °F 96% 30.33 in 10.0 mi Calm Calm - N/A   Clear
7:56 AM 45.3 °F - 44.1 °F 95% 30.33 in 10.0 mi Calm Calm - N/A   Clear
8:15 AM 46.6 °F - 45.5 °F 96% 30.34 in 10.0 mi Calm Calm - N/A   Clear
8:35 AM 48.7 °F - 47.5 °F 95% 30.34 in 10.0 mi Calm Calm - N/A   Clear
8:56 AM 50.0 °F - 48.7 °F 95% 30.35 in 10.0 mi Calm Calm - N/A   Clear
9:15 AM 52.0 °F - 49.6 °F 92% 30.35 in 10.0 mi Calm Calm - N/A   Clear
9:35 AM 54.7 °F - 48.4 °F 79% 30.35 in 10.0 mi Calm Calm - N/A   Clear
9:56 AM 57.2 °F - 46.9 °F 69% 30.35 in 10.0 mi NNE 4.6 mph - N/A   Clear
10:15 AM 59.2 °F - 43.7 °F 57% 30.36 in 10.0 mi East 5.8 mph - N/A   Clear
10:36 AM 61.3 °F - 42.4 °F 50% 30.35 in 10.0 mi East 5.8 mph - N/A   Clear
10:55 AM 61.7 °F - 38.7 °F 43% 30.35 in 10.0 mi ENE 8.1 mph - N/A   Clear
11:16 AM 63.1 °F - 39.2 °F 41% 30.35 in 10.0 mi East 4.6 mph - N/A   Clear
11:35 AM 62.8 °F - 39.7 °F 43% 30.35 in 10.0 mi East 8.1 mph - N/A   Clear
11:56 AM 63.1 °F - 44.2 °F 50% 30.35 in 10.0 mi Calm Calm - N/A   Clear
12:16 PM 64.2 °F - 43.9 °F 48% 30.35 in 10.0 mi North 4.6 mph - N/A   Clear
12:36 PM 65.5 °F - 39.4 °F 38% 30.35 in 10.0 mi NE 8.1 mph - N/A   Clear
12:56 PM 65.1 °F - 36.7 °F 35% 30.35 in 10.0 mi North 8.1 mph - N/A   Clear
1:15 PM 65.8 °F - 36.5 °F 34% 30.35 in 10.0 mi East 4.6 mph - N/A   Clear
1:36 PM 66.6 °F - 37.8 °F 35% 30.35 in 10.0 mi NNE 4.6 mph - N/A   Clear
1:55 PM 66.4 °F - 38.3 °F 36% 30.34 in 10.0 mi NNE 6.9 mph - N/A   Clear
2:15 PM 66.6 °F - 37.6 °F 34% 30.33 in 10.0 mi NE 9.2 mph - N/A   Clear
2:35 PM 67.1 °F - 37.6 °F 34% 30.33 in 10.0 mi NE 8.1 mph - N/A   Clear
2:55 PM 67.3 °F - 37.9 °F 34% 30.32 in 10.0 mi Calm Calm - N/A   Clear
3:15 PM 67.8 °F - 35.4 °F 30% 30.33 in 10.0 mi Calm Calm - N/A   Clear
3:35 PM 68.0 °F - 40.3 °F 36% 30.31 in 10.0 mi Calm Calm - N/A   Clear
3:56 PM 67.3 °F - 39.7 °F 36% 30.31 in 10.0 mi NW 5.8 mph - N/A   Clear
4:15 PM 67.3 °F - 40.3 °F 37% 30.31 in 10.0 mi North 4.6 mph - N/A   Clear
4:35 PM 67.3 °F - 40.3 °F 37% 30.32 in 10.0 mi NW 4.6 mph - N/A   Clear
4:55 PM 66.9 °F - 40.1 °F 37% 30.31 in 10.0 mi North 4.6 mph - N/A   Clear
5:15 PM 66.4 °F - 38.3 °F 36% 30.32 in 10.0 mi NNW 4.6 mph - N/A   Clear
5:36 PM 65.8 °F - 39.2 °F 38% 30.31 in 10.0 mi Calm Calm - N/A   Clear
5:56 PM 65.1 °F - 39.9 °F 40% 30.31 in 10.0 mi North 3.5 mph - N/A   Clear
6:15 PM 63.9 °F - 42.1 °F 45% 30.32 in 10.0 mi NNW 3.5 mph - N/A   Clear
6:36 PM 59.2 °F - 43.5 °F 56% 30.33 in 10.0 mi Calm Calm - N/A   Clear
6:55 PM 55.6 °F - 44.8 °F 67% 30.32 in 10.0 mi Calm Calm - N/A   Clear
7:15 PM 53.8 °F - 45.1 °F 73% 30.32 in 10.0 mi Calm Calm - N/A   Clear
7:35 PM 52.7 °F - 47.5 °F 82% 30.33 in 10.0 mi Calm Calm - N/A   Clear
7:55 PM 51.1 °F - 48.2 °F 90% 30.33 in 10.0 mi Calm Calm - N/A   Clear
8:16 PM 49.6 °F - 47.3 °F 92% 30.33 in 10.0 mi Calm Calm - N/A   Clear
8:35 PM 48.2 °F - 46.2 °F 93% 30.33 in 10.0 mi Calm Calm - N/A   Clear
8:55 PM 47.8 °F - 46.6 °F 95% 30.33 in 10.0 mi Calm Calm - N/A   Clear
9:16 PM 46.4 °F - 45.0 °F 95% 30.33 in 10.0 mi Calm Calm - N/A   Clear
9:36 PM 47.3 °F - 46.0 °F 95% 30.33 in 10.0 mi Calm Calm - N/A   Clear
9:55 PM 46.8 °F - 45.1 °F 94% 30.34 in 10.0 mi ESE 3.5 mph - N/A   Clear
10:16 PM 46.9 °F - 44.8 °F 92% 30.33 in 10.0 mi Calm Calm - N/A   Clear
10:35 PM 46.8 °F - 44.6 °F 92% 30.33 in 10.0 mi ESE 3.5 mph - N/A   Clear
10:55 PM 47.7 °F - 44.8 °F 90% 30.33 in 10.0 mi ESE 5.8 mph - N/A   Clear
11:15 PM 47.3 °F - 44.2 °F 89% 30.33 in 10.0 mi ESE 4.6 mph - N/A   Clear
11:35 PM 46.8 °F - 43.9 °F 90% 30.33 in 10.0 mi East 4.6 mph - N/A   Clear
11:56 PM 46.2 °F 45.0 °F 43.2 °F 89% 30.33 in 10.0 mi SE 3.5 mph - N/A   Clear